Regional Weather Roundup
Issued by NWS

Home | Current Version | Previous Version | Graphics & Text | Print | Product List | Glossary On
Versions: 1 2 3 4 5 6 7 8 9 10 11 12 13 14 15 16 17 18 19 20 21 22 23 24 25 26 27 28 29 30 31 32 33 34 35 36 37 38 39 40 41 42 43 44 45 46 47 48 49 50
000
ASUS43 KOAX 281910
RWRNE

WEATHER ROUNDUP FOR NEBRASKA
NATIONAL WEATHER SERVICE OMAHA NE
100 PM CST FRI NOV 28 2014

NOTES: SATELLITE DATA IS BEING USED TO AUGMENT CLOUD COVER ABOVE
       12000 FEET.
       "FAIR" INDICATES FEW OR NO CLOUDS BELOW 12,000 FEET WITH NO
       SIGNIFICANT WEATHER AND/OR OBSTRUCTIONS TO VISIBILITY.

  * THESE STATIONS DO NOT REPORT WEATHER SUCH AS RAIN...SNOW OR FOG.

NEZ001>004-019>022-054>056-282000-
NEBRASKA PANHANDLE

CITY           SKY/WX    TMP DP  RH WIND       PRES   REMARKS
SCOTTSBLUFF    PTSUNNY   64  24  21 NW10      29.77F
ALLIANCE       MOSUNNY   67  18  15 W29G36    29.74F
CHADRON        SUNNY    N/A N/A N/A W15       29.69F
KIMBALL        CLOUDY    63  16  16 W17G28    29.81F
SIDNEY         PTSUNNY   65  22  19 W12       29.82F
$$

NEZ057>060-069>072-079>082-282000-
SOUTHWEST NEBRASKA

CITY           SKY/WX    TMP DP  RH WIND       PRES   REMARKS
NORTH PLATTE   MOSUNNY   66  27  23 W13       29.73F
IMPERIAL       MOSUNNY   74  13   9 W15G24    29.78F
LEXINGTON      MOSUNNY   71  25  18 SW12      29.73F
MCCOOK         SUNNY     73  19  13 SW13      29.77F
OGALLALA       MOSUNNY   65  31  28 W16G22    29.77F
$$

NEZ005>010-023>029-035>040-094-282000-
NORTH CENTRAL NEBRASKA

CITY           SKY/WX    TMP DP  RH WIND       PRES   REMARKS
VALENTINE      SUNNY     64  28  25 W18       29.65F
AINSWORTH      SUNNY     62  26  26 W17G24    29.65F
BROKEN BOW     MOSUNNY   71  27  19 W14       29.68F
O`NEILL        SUNNY     69  30  23 W14       29.63F
ORD            MOSUNNY   69  23  17 W14G23    29.66F
THEDFORD       SUNNY     69  25  19 W23G32    29.69F
$$

NEZ041-046>049-061>064-073>077-083>087-282000-
SOUTH CENTRAL NEBRASKA

CITY           SKY/WX    TMP DP  RH WIND       PRES   REMARKS
GRAND ISLAND   MOSUNNY   66  29  24 SW14      29.71F
AURORA         SUNNY     66  30  25 SW14G20   29.70F
HASTINGS       SUNNY     69  26  20 SW13G20   29.71F
HEBRON         SUNNY     61  26  26 SW8       29.76F
HOLDREGE       MOSUNNY   66  26  22 SW13      29.74F
KEARNEY *      SUNNY     66  27  22 S17       29.73F
YORK           MOSUNNY   61  32  33 SW12G17   29.72F
$$

NEZ011>018-030>034-042>045-282000-
NORTHEAST NEBRASKA

CITY           SKY/WX    TMP DP  RH WIND       PRES   REMARKS
NORFOLK        SUNNY     54  29  38 S10       29.66F
ALBION         SUNNY     64  27  25 W10G20    29.66F
BLAIR          SUNNY     47  29  49 S9        29.74F
COLUMBUS *     SUNNY     54  30  40 S9        29.71F
FREMONT        SUNNY     49  29  46 SE7       29.72F
TEKAMAH        SUNNY     48  29  47 S14       29.73F
WAYNE          SUNNY     47  30  50 SE9       29.69F
$$

NEZ050>053-065>068-078-088>093-282000-
SOUTHEAST NEBRASKA

CITY           SKY/WX    TMP DP  RH WIND       PRES   REMARKS
LINCOLN        MOSUNNY   54  29  38 S10       29.75F
OMAHA EPPLEY   MOSUNNY   45  29  53 S9        29.77F
BEATRICE       MOSUNNY   53  31  43 S10       29.77F
FALLS CITY     MOSUNNY   54  30  40 S12       29.79F
NEBRASKA CITY  MOSUNNY   50  25  37 S9        29.77F
PLATTSMOUTH    MOSUNNY   49  28  44 S8        29.76F
$$

NEZ044-045-051>053-067-282000-
OMAHA AREA

CITY           SKY/WX    TMP DP  RH WIND       PRES   REMARKS
OMAHA EPPLEY   MOSUNNY   45  29  53 S9        29.77F
BLAIR          SUNNY     47  29  49 S9        29.74F
FREMONT        SUNNY     49  29  46 SE7       29.72F
MILLARD        SUNNY     48  31  50 S6        29.75F
OFFUTT AFB     SUNNY     47  30  50 S8        29.75F
PLATTSMOUTH    MOSUNNY   49  28  44 S8        29.76F
WAHOO          FAIR      49  27  42 S10       29.72F
$$


USA.gov is the U.S. government's official web portal to all federal, state and local government web resources and services.